Wind_Speed
4 4 3 3 1 1 3 4 6 9 12 13 13 13 13 12 11 10 10 10 7 8 7 8 6 3 4 10 12 10 7 10 15 12 3 6 8 8 8 3 5 11 5 4 3
5 4 3 2 1 1 2 4 5 7 8 9 12 14 14 13 13 12 13 13 10 10 8 7 6 2 6 11 13 9 12 13 9 7 3 9 6 8 7 1 4 13 6 4 4
6 5 4 3 3 2 1 2 3 5 6 7 8 10 12 14 13 15 14 13 14 11 11 9 8 6 6 10 8 8 14 10 9 6 8 10 9 7 5 2 6 13 7 1 4
7 6 5 4 4 3 2 1 1 2 4 6 7 8 9 10 11 17 16 15 15 12 12 13 10 5 5 6 7 10 13 10 9 1 12 15 11 8 7 3 5 10 5 6 8
8 6 5 4 4 4 3 3 2 1 2 4 6 7 8 10 11 15 18 17 16 14 13 10 8 4 6 4 8 9 8 12 5 2 9 18 13 12 6 3 4 4 11 10 9
8 7 6 4 3 3 3 3 3 2 1 1 4 7 10 11 11 11 18 18 17 16 13 10 8 5 4 4 7 9 9 8 3 3 5 10 16 10 9 7 1 8 11 13 11
9 8 7 6 4 4 3 3 3 3 3 3 4 7 10 13 15 9 9 17 18 19 14 13 8 6 3 5 7 11 7 4 4 3 12 10 12 10 9 3 4 7 6 10 11
8 8 7 6 5 4 3 2 2 3 4 6 6 8 8 9 10 5 12 16 19 22 16 15 9 6 6 8 9 10 3 3 5 4 10 9 13 6 11 7 4 2 4 5 6
10 8 8 7 6 5 4 3 1 3 4 9 9 11 10 9 4 3 12 16 20 23 17 16 9 11 11 10 11 10 9 7 4 5 10 14 13 8 10 10 7 4 4 4 4
11 11 9 7 7 6 5 5 5 1 4 7 7 10 12 10 6 7 14 19 23 23 19 17 14 16 16 12 10 12 21 13 7 4 10 15 17 9 14 13 13 10 8 6 1
12 11 10 9 8 7 7 8 8 5 3 7 5 9 12 10 7 8 17 22 25 25 21 20 21 20 13 11 12 14 17 5 8 7 7 10 15 16 15 22 22 19 16 14 11
13 12 11 8 9 8 9 11 8 6 4 5 9 13 11 11 10 9 17 21 23 24 24 23 21 11 15 13 15 13 11 10 9 8 9 10 12 12 20 25 24 23 25 21 15
13 11 12 8 9 10 11 11 7 7 6 7 5 13 12 12 7 7 11 17 20 22 23 24 10 10 15 14 14 10 12 6 5 5 10 14 21 14 16 21 19 21 24 21 16
14 11 11 10 9 11 11 10 5 6 5 3 7 14 11 13 8 8 5 10 16 16 19 19 15 10 13 16 13 15 8 10 9 9 5 7 7 24 13 14 18 18 19 15 15
14 11 10 9 9 12 10 8 5 1 3 5 8 7 12 11 10 7 7 9 13 16 17 10 9 8 11 9 8 12 13 4 11 17 18 15 7 8 20 7 10 12 15 15 15
15 11 10 8 8 10 10 8 6 3 3 6 9 9 12 13 9 7 10 11 12 13 13 14 13 13 9 7 9 8 8 11 9 11 7 5 4 13 7 12 13 9 11 14 12
13 12 10 8 8 9 12 10 4 4 5 5 9 8 12 12 13 8 14 12 16 13 15 16 18 16 14 14 13 13 10 3 2 2 7 10 5 11 17 16 6 1 7 7 9
10 10 8 5 5 10 15 13 6 3 6 3 13 12 14 15 13 11 11 19 16 14 6 16 16 24 16 19 15 14 14 8 5 3 4 6 6 9 10 7 6 4 7 10 13
8 8 6 3 7 14 19 17 4 6 6 3 7 13 14 14 14 11 18 17 17 14 17 10 12 7 9 17 20 18 15 13 13 5 2 4 8 11 4 1 7 8 5 10 13
5 4 4 1 8 14 21 20 10 8 7 2 1 7 7 14 16 10 14 9 11 17 14 9 9 6 2 1 15 19 12 8 9 1 3 5 8 8 2 6 2 6 9 11 12
3 4 2 1 5 11 16 18 17 14 12 10 5 6 2 3 12 13 8 12 8 8 15 24 24 21 14 7 11 20 18 13 6 3 6 1 8 6 3 9 7 8 6 9 13
3 5 7 4 5 8 9 10 12 9 10 9 17 14 9 7 8 7 11 7 4 5 8 18 15 24 20 20 18 17 20 19 15 6 6 3 9 9 4 9 12 11 10 9 11
5 7 9 8 6 7 7 6 5 6 7 5 4 8 12 10 7 9 10 11 10 6 4 10 16 16 12 16 14 14 18 24 21 14 9 6 5 5 7 8 9 16 15 13 12
5 5 9 12 12 12 8 9 10 6 5 10 7 9 11 15 14 9 14 12 12 11 10 14 14 15 20 22 15 17 19 20 20 11 11 13 14 11 9 8 9 14 13 15 7
7 8 11 10 14 16 15 12 11 11 7 11 9 11 8 6 14 17 18 19 14 13 13 12 18 19 16 15 16 20 19 23 17 11 12 19 18 13 6 7 7 6 10 10 10
11 10 12 17 16 16 17 20 20 16 14 12 12 11 9 7 10 12 14 16 20 13 14 15 15 18 19 17 19 16 16 15 12 8 13 12 9 7 8 8 10 11 12 12 10
14 12 13 16 18 20 22 22 23 22 18 19 17 15 12 12 11 11 12 13 12 14 17 11 10 13 17 22 22 19 20 18 18 16 14 20 15 13 11 9 10 12 13 14 11
Wind_Direction
62 68 70 69 64 241 227 221 219 222 226 227 224 222 219 212 203 200 188 191 204 191 175 154 129 143 22 356 331 333 340 333 338 338 244 200 206 222 188 212 352 339 317 345 171
47 42 48 42 29 328 257 243 234 228 224 224 227 226 225 218 208 200 200 195 188 195 186 190 177 242 343 338 325 312 320 325 333 328 230 198 180 175 179 67 343 353 343 283 180
43 39 29 28 27 19 299 255 244 238 234 226 220 220 222 219 210 203 201 199 193 191 189 197 212 275 322 319 326 307 309 313 313 299 197 206 190 181 169 89 356 349 45 309 169
32 32 33 35 37 38 24 342 268 241 232 228 221 211 206 202 203 204 201 199 192 190 191 198 223 241 304 327 340 288 318 318 316 254 201 193 210 201 188 173 338 346 84 91 99
14 17 20 23 34 34 33 24 10 348 242 215 211 204 189 187 195 192 200 200 192 189 195 202 201 213 232 348 342 322 338 345 307 257 203 213 224 209 162 186 338 34 100 81 76
2 359 359 357 2 16 20 28 30 38 47 175 187 187 181 184 185 177 199 200 191 193 200 194 187 226 253 294 323 324 322 343 324 194 189 197 207 218 215 194 81 123 96 75 70
346 349 344 340 335 337 359 17 37 48 77 109 145 165 174 183 179 172 185 203 194 194 198 191 204 220 234 303 311 326 324 335 332 151 160 181 179 187 184 184 173 128 115 81 69
324 327 334 329 320 308 307 338 41 67 94 110 122 138 159 153 161 209 209 204 194 196 193 187 204 218 263 297 296 327 2 308 309 208 189 199 178 207 212 212 170 133 97 99 72
314 310 309 313 313 293 276 260 139 82 118 128 117 127 130 150 176 243 188 191 186 192 193 196 208 237 258 271 293 328 298 311 323 246 233 218 218 238 213 220 238 191 176 84 69
317 309 302 298 297 291 264 249 237 214 178 167 159 146 143 144 134 176 177 163 172 187 195 200 219 242 258 260 278 305 325 290 279 291 248 228 233 255 234 252 259 263 256 254 202
323 312 302 297 283 283 258 242 239 258 257 215 198 181 167 157 154 166 177 172 179 187 197 203 223 237 255 280 292 301 311 286 261 256 266 255 255 241 238 248 249 255 257 257 278
328 319 306 289 274 269 259 246 251 274 317 231 219 195 183 166 170 163 179 181 190 193 201 211 222 226 247 267 301 304 283 289 282 256 250 262 280 252 236 248 244 250 252 255 269
328 323 304 295 262 252 259 262 277 298 325 241 226 191 175 156 160 163 177 193 200 202 205 212 193 214 239 261 299 278 260 256 11 290 272 279 293 274 263 262 252 247 245 242 245
328 331 310 294 266 249 250 258 271 317 335 97 157 178 178 162 167 192 188 189 196 203 205 224 214 264 259 271 272 256 293 233 259 298 300 298 286 305 299 279 260 249 243 235 231
318 327 321 292 260 241 238 245 242 262 13 145 163 169 169 168 159 165 174 181 177 180 195 205 211 260 273 305 271 269 285 348 278 271 286 286 277 292 313 324 289 264 253 233 233
312 320 313 301 263 242 220 211 183 214 247 157 169 176 182 173 166 161 184 198 196 206 225 242 250 256 265 302 292 270 284 307 275 261 268 298 248 298 319 337 323 263 252 241 242
308 315 309 298 272 227 205 190 189 213 155 165 203 206 184 189 190 195 203 196 211 222 237 246 244 241 250 266 269 260 243 329 320 301 230 309 254 286 310 320 12 160 200 198 198
309 313 309 282 232 207 197 186 217 185 158 167 212 213 214 208 220 225 223 220 218 222 246 235 257 242 244 234 239 251 243 197 218 208 272 316 253 304 314 327 4 109 156 166 179
290 311 318 256 190 190 194 195 207 184 162 111 192 210 217 216 233 240 244 256 247 237 226 223 234 239 258 260 249 232 234 258 256 274 329 273 288 324 270 259 62 59 90 166 172
280 292 322 145 172 184 200 213 210 203 213 230 100 171 204 231 231 257 255 257 247 246 239 247 269 246 316 271 226 220 257 205 219 139 282 299 294 266 251 210 94 99 100 140 149
261 233 212 100 173 187 204 221 234 244 260 277 243 206 239 204 210 225 262 260 253 273 248 243 252 261 283 282 229 214 234 236 248 214 157 239 292 320 239 202 200 172 166 160 145
265 224 209 192 182 190 212 220 233 226 235 269 265 262 255 238 223 226 246 245 223 273 253 238 243 252 271 281 280 244 241 243 234 240 217 191 276 297 287 233 208 208 197 202 183
300 242 221 230 216 201 206 207 210 200 195 192 211 223 211 227 260 228 236 218 232 254 253 239 223 242 273 263 256 222 231 241 249 237 218 166 250 312 272 251 214 225 232 221 220
305 262 243 248 249 245 247 238 213 221 226 228 245 232 242 244 234 235 226 231 238 241 244 252 240 232 223 236 235 241 252 223 222 225 240 237 266 273 273 240 218 215 224 236 227
301 258 252 251 252 262 267 262 248 231 236 232 238 229 246 243 223 226 234 241 251 258 250 239 240 243 241 229 247 246 234 213 216 251 275 289 267 271 231 197 211 207 221 221 225
309 280 259 251 253 250 257 266 268 263 260 255 252 246 251 248 248 232 232 246 246 240 237 245 250 235 230 231 216 213 215 213 215 250 270 249 276 239 192 208 221 225 238 243 241
316 297 280 269 263 262 261 260 263 267 264 263 258 250 251 248 240 238 241 242 235 246 238 240 234 230 220 205 218 223 224 225 231 244 259 251 256 262 245 257 264 258 255 262 259
Height
3146 3145 3145 3145 3145 3145 3145 3146 3147 3148 3149 3151 3152 3154 3156 3158 3160 3162 3164 3166 3166 3167 3168 3169 3171 3170 3170 3169 3167 3166 3165 3163 3163 3162 3161 3162 3163 3164 3166 3167 3168 3168 3168 3169 3168
3147 3146 3145 3145 3145 3145 3145 3145 3145 3146 3147 3149 3150 3152 3154 3156 3159 3161 3164 3164 3166 3167 3168 3169 3170 3170 3170 3168 3166 3165 3164 3163 3162 3161 3162 3162 3164 3164 3167 3167 3169 3168 3167 3168 3169
3147 3146 3146 3145 3145 3144 3144 3144 3144 3145 3146 3147 3149 3150 3152 3154 3158 3160 3162 3163 3165 3167 3168 3169 3170 3170 3170 3168 3166 3164 3163 3162 3160 3160 3161 3162 3164 3165 3167 3168 3169 3169 3166 3168 3169
3148 3147 3146 3146 3145 3144 3144 3144 3144 3144 3145 3146 3147 3149 3150 3152 3157 3157 3160 3162 3164 3166 3168 3169 3170 3170 3169 3167 3166 3164 3162 3160 3158 3158 3159 3161 3163 3166 3167 3169 3169 3168 3167 3168 3169
3148 3147 3147 3146 3145 3145 3144 3144 3143 3144 3144 3144 3145 3147 3149 3151 3153 3154 3157 3160 3163 3165 3167 3168 3169 3169 3168 3167 3166 3164 3162 3160 3158 3158 3159 3161 3164 3166 3167 3168 3169 3169 3169 3170 3170
3148 3147 3146 3146 3145 3145 3144 3144 3144 3143 3143 3143 3144 3146 3148 3150 3151 3153 3155 3158 3162 3164 3166 3167 3168 3168 3168 3167 3165 3163 3162 3160 3158 3159 3160 3160 3161 3165 3167 3168 3169 3170 3170 3170 3170
3148 3147 3146 3145 3145 3144 3144 3144 3143 3143 3143 3143 3143 3144 3147 3150 3151 3153 3155 3157 3160 3163 3165 3166 3167 3168 3168 3167 3164 3163 3161 3161 3160 3159 3160 3161 3163 3164 3166 3167 3169 3170 3170 3170 3171
3147 3146 3145 3145 3144 3144 3143 3143 3143 3143 3143 3143 3143 3144 3147 3149 3151 3152 3153 3154 3157 3161 3163 3165 3165 3167 3167 3166 3164 3164 3162 3161 3160 3160 3162 3163 3163 3164 3165 3167 3168 3170 3170 3170 3171
3146 3145 3145 3144 3143 3143 3143 3143 3143 3143 3143 3144 3145 3145 3148 3149 3150 3150 3151 3152 3155 3159 3162 3163 3164 3165 3166 3165 3165 3163 3163 3161 3160 3160 3161 3162 3162 3163 3164 3165 3167 3167 3169 3170 3171
3144 3143 3143 3143 3142 3141 3141 3141 3141 3142 3143 3144 3145 3148 3148 3148 3148 3148 3150 3151 3155 3158 3160 3163 3164 3164 3164 3165 3164 3163 3161 3160 3160 3160 3159 3160 3161 3161 3161 3162 3163 3164 3166 3168 3171
3142 3141 3141 3141 3140 3140 3140 3140 3143 3143 3142 3143 3144 3144 3145 3147 3148 3147 3149 3151 3153 3156 3159 3161 3163 3161 3164 3166 3164 3163 3160 3158 3159 3159 3159 3158 3159 3160 3160 3160 3160 3161 3162 3165 3168
3140 3139 3138 3138 3138 3138 3137 3137 3139 3141 3140 3140 3140 3142 3143 3145 3146 3147 3148 3151 3153 3155 3158 3161 3159 3162 3164 3164 3163 3162 3160 3158 3158 3158 3159 3158 3156 3157 3157 3155 3156 3158 3160 3162 3166
3138 3137 3135 3136 3135 3135 3135 3136 3138 3138 3138 3138 3138 3140 3143 3145 3146 3147 3149 3150 3153 3155 3157 3158 3160 3161 3163 3162 3162 3160 3160 3160 3159 3157 3158 3157 3153 3152 3153 3152 3152 3153 3155 3159 3163
3136 3135 3133 3133 3134 3132 3133 3134 3136 3137 3137 3138 3138 3140 3143 3144 3146 3147 3148 3151 3152 3154 3157 3158 3160 3160 3161 3161 3161 3158 3159 3160 3160 3159 3158 3157 3154 3149 3149 3149 3148 3150 3151 3155 3160
3133 3132 3131 3129 3130 3130 3133 3133 3135 3137 3138 3139 3138 3139 3141 3144 3146 3147 3149 3150 3152 3154 3156 3157 3157 3157 3157 3158 3159 3160 3160 3160 3160 3159 3158 3157 3157 3147 3146 3146 3146 3147 3149 3152 3157
3130 3130 3128 3128 3127 3129 3130 3132 3135 3138 3135 3137 3138 3139 3141 3143 3145 3146 3148 3150 3153 3154 3155 3155 3155 3155 3155 3156 3157 3159 3159 3158 3158 3159 3158 3155 3156 3145 3145 3145 3143 3143 3146 3149 3154
3127 3126 3125 3125 3126 3126 3129 3132 3136 3134 3135 3137 3137 3138 3141 3143 3144 3146 3147 3148 3150 3153 3153 3152 3152 3153 3154 3155 3155 3157 3158 3159 3161 3159 3156 3152 3153 3147 3145 3143 3143 3142 3144 3148 3152
3125 3124 3123 3122 3123 3125 3128 3133 3133 3132 3132 3133 3134 3136 3139 3141 3143 3145 3146 3147 3149 3150 3151 3151 3151 3149 3150 3151 3152 3153 3155 3157 3161 3160 3153 3152 3149 3146 3146 3144 3144 3144 3145 3148 3152
3122 3122 3121 3120 3120 3123 3128 3129 3129 3131 3131 3131 3132 3134 3136 3139 3142 3142 3143 3143 3145 3147 3150 3148 3147 3146 3146 3146 3150 3151 3152 3155 3154 3154 3154 3151 3148 3146 3145 3146 3145 3146 3146 3149 3153
3120 3120 3120 3120 3120 3122 3126 3127 3128 3130 3130 3130 3130 3132 3134 3136 3139 3139 3139 3139 3141 3143 3146 3147 3146 3144 3144 3142 3146 3148 3150 3152 3152 3154 3156 3150 3148 3146 3146 3148 3148 3149 3150 3151 3154
3119 3119 3119 3120 3121 3122 3124 3126 3127 3128 3129 3130 3130 3132 3132 3133 3135 3136 3136 3137 3138 3140 3142 3143 3145 3142 3143 3143 3143 3145 3146 3148 3150 3151 3151 3154 3148 3146 3147 3148 3150 3150 3152 3153 3155
3118 3119 3119 3119 3122 3121 3122 3123 3124 3126 3126 3127 3127 3129 3131 3131 3132 3133 3133 3134 3135 3137 3137 3138 3140 3139 3139 3140 3140 3142 3144 3145 3146 3148 3148 3149 3147 3145 3146 3147 3148 3149 3152 3153 3155
3117 3117 3118 3118 3119 3119 3120 3121 3122 3122 3123 3124 3125 3126 3128 3128 3130 3129 3131 3132 3133 3134 3134 3134 3135 3136 3136 3138 3136 3138 3139 3140 3142 3142 3143 3146 3146 3144 3145 3146 3148 3149 3150 3152 3154
3116 3116 3116 3116 3116 3117 3118 3118 3120 3121 3122 3121 3122 3122 3123 3124 3125 3126 3127 3128 3129 3130 3130 3131 3130 3129 3129 3131 3134 3134 3134 3136 3139 3139 3138 3140 3141 3143 3143 3143 3145 3147 3149 3150 3151
3113 3113 3113 3112 3113 3114 3115 3115 3116 3118 3119 3118 3119 3119 3119 3120 3120 3121 3122 3124 3126 3126 3127 3127 3125 3125 3126 3126 3128 3128 3129 3131 3133 3135 3135 3136 3136 3138 3139 3141 3143 3145 3146 3148 3149
3111 3111 3110 3110 3110 3111 3111 3110 3111 3114 3115 3115 3115 3116 3116 3117 3118 3118 3118 3119 3121 3123 3122 3123 3122 3121 3120 3121 3123 3125 3127 3127 3129 3130 3131 3132 3132 3134 3136 3137 3138 3139 3141 3143 3146
3107 3106 3106 3105 3106 3106 3106 3106 3106 3107 3109 3109 3111 3111 3112 3113 3113 3114 3114 3115 3116 3117 3118 3118 3117 3118 3116 3115 3115 3120 3122 3124 3124 3126 3128 3129 3131 3131 3132 3133 3135 3136 3137 3139 3141